This is the latest recevied weather packets stored in our database for station/object KE0PRS. If no packets are shown the sender has not sent any weather packets the latest 10 day(s).
| Time | Temp. | Humidity | Pressure | Rain* | Wind** | Luminosity | Snow |
|---|---|---|---|---|---|---|---|
| 1787703793 | 28.89° C | 62% | 1018.6 hPa | 0 mm | - | 59 W/m² | - |
| 1787703489 | 28.89° C | 63% | 1018.7 hPa | 0 mm | - | 67 W/m² | - |
| 1787703183 | 28.89° C | 63% | 1018.6 hPa | 0 mm | - | 75 W/m² | - |
| 1787702879 | 28.89° C | 62% | 1018.3 hPa | 0 mm | - | 86 W/m² | - |
| 1787702575 | 29.44° C | 62% | 1018.3 hPa | 0 mm | - | 92 W/m² | - |
| 1787702270 | 30° C | 61% | 1018.5 hPa | 0 mm | - | 98 W/m² | - |
| 1787701969 | 30° C | 55% | 1018.3 hPa | 0 mm | - | 111 W/m² | - |
| 1787701666 | 30.56° C | 50% | 1018.4 hPa | 0 mm | - | 115 W/m² | - |
| 1787701361 | 30.56° C | 51% | 1018.2 hPa | 0 mm | - | 129 W/m² | - |
| 1787701057 | 30° C | 51% | 1018.1 hPa | 0 mm | - | 154 W/m² | - |
| 1787700752 | 30° C | 52% | 1018.1 hPa | 0 mm | - | 168 W/m² | - |
| 1787700448 | 30° C | 52% | 1018.1 hPa | 0 mm | - | 181 W/m² | - |
| 1787700144 | 30° C | 50% | 1017.9 hPa | 0 mm | - | 198 W/m² | - |
| 1787699840 | 30° C | 51% | 1018.1 hPa | 0 mm | - | 216 W/m² | - |
| 1787699540 | 30° C | 51% | 1017.8 hPa | 0 mm | - | 233 W/m² | - |
| 1787699235 | 30° C | 48% | 1017.8 hPa | 0 mm | - | 253 W/m² | - |
| 1787698932 | 30° C | 50% | 1017.7 hPa | 0 mm | - | 271 W/m² | - |
| 1787698631 | 30° C | 50% | 1017.7 hPa | 0 mm | - | 290 W/m² | - |
| 1787698328 | 30° C | 51% | 1017.8 hPa | 0 mm | - | 307 W/m² | - |
| 1787698024 | 30° C | 52% | 1017.8 hPa | 0 mm | - | 324 W/m² | - |
| 1787697723 | 30.56° C | 53% | 1017.6 hPa | 0 mm | - | 339 W/m² | - |
| 1787697419 | 30.56° C | 53% | 1017.6 hPa | 0 mm | - | 360 W/m² | - |
| 1787697114 | 31.11° C | 50% | 1017.5 hPa | 0 mm | - | 377 W/m² | - |
| 1787696809 | 31.11° C | 48% | 1017.3 hPa | 0 mm | - | 394 W/m² | - |
| 1787696505 | 31.11° C | 48% | 1017.4 hPa | 0 mm | - | 410 W/m² | - |
* Rain latest hour (hover to see other rain measurements)
** Current wind speed in m/s (hover to see current wind gust speed)